Regional Weather Roundup
Issued by NWS

Home | Current Version | Previous Version | Graphics & Text | Print | Product List | Glossary On
Versions: 1 2 3 4 5 6 7 8 9 10 11 12 13 14 15 16 17 18 19 20 21 22 23 24 25 26 27 28 29 30 31 32 33 34 35 36 37 38 39 40 41 42 43 44 45 46 47 48 49 50
000
ASUS43 KDTX 220610
RWRMI
MICHIGAN HOURLY REGIONAL WEATHER ROUNDUP
NATIONAL WEATHER SERVICE DETROIT/PONTIAC MI
200 AM EDT SUN OCT 22 2017

NOTE: "FAIR" INDICATES FEW OR NO CLOUDS BELOW 12,000 FEET WITH NO
SIGNIFICANT WEATHER AND/OR OBSTRUCTION TO VISIBILITY.

MIZ047>049-052>055-059>063-066>070-074>076-081>083-220700-
SOUTHEAST LOWER MICHIGAN

CITY           SKY/WX    TMP DP  RH WIND       PRES   REMARKS
ADRIAN         CLEAR     56  47  71 S6        30.16S
6HR MIN TEMP:  56; 6HR MAX TEMP:  64;

ALMA           CLOUDY    60  44  54 SE6       30.10S
ANN ARBOR      CLEAR     48  46  93 CALM      30.16R
BAD AXE        CLOUDY    60  50  71 S7        30.14R
6HR MIN TEMP:  58; 6HR MAX TEMP:  65;

CARO           CLOUDY    62  49  61 S7        30.12S
DETROIT CITY   MOCLDY    58  51  78 S6        30.17R
6HR MIN TEMP:  57; 6HR MAX TEMP:  64;

DETROIT        CLOUDY    57  47  69 S6        30.17S
6HR MIN TEMP:  56; 6HR MAX TEMP:  65;

FLINT          CLEAR     62  48  60 S7        30.14R
6HR MIN TEMP:  60; 6HR MAX TEMP:  64;

GROSSE ILE     PTCLDY    58  53  82 S5        30.17R
6HR MIN TEMP:  58; 6HR MAX TEMP:  69;

HILLSDALE      CLEAR     59  45  58 S7        30.15R
HOWELL         CLEAR     60  46  60 SE6       30.14R
6HR MIN TEMP:  60; 6HR MAX TEMP:  64;


CITY           SKY/WX    TMP DP  RH WIND       PRES   REMARKS
JACKSON        CLEAR     62  45  53 S9        30.14S
6HR MIN TEMP:  62; 6HR MAX TEMP:  67;

LAMBERTVILLE   CLEAR     58  46  63 CALM      30.17R
6HR MIN TEMP:  56; 6HR MAX TEMP:  66;

LANSING        CLEAR     61  44  53 S9        30.12S
6HR MIN TEMP:  61; 6HR MAX TEMP:  67;

LAPEER         FAIR      59  47  63 S5        30.15S
6HR MIN TEMP:  59; 6HR MAX TEMP:  65;

MASON          CLEAR     62  46  54 S3        30.13R
MONROE         PTCLDY    57  44  60 S3        30.16S
6HR MIN TEMP:  56; 6HR MAX TEMP:  65;

MT. CLEMENS    CLOUDY    54  54 100 S5        30.16R
6HR MIN TEMP:  52; 6HR MAX TEMP:  60;

PONTIAC        CLOUDY    60  47  61 S6        30.15R
6HR MIN TEMP:  60; 6HR MAX TEMP:  65;

PORT HOPE        N/A     62  50  64 VRB5      30.11R
6HR MIN TEMP:  61; 6HR MAX TEMP:  67;

PORT HURON     CLEAR     52  50  93 CALM      30.17R
TRI CITIES     CLEAR     61  51  70 S7        30.11S
6HR MIN TEMP:  61; 6HR MAX TEMP:  70;

MIDLAND        FAIR      63  49  61 S6        30.09S
6HR MIN TEMP:  63; 6HR MAX TEMP:  70;

TROY           CLOUDY    60  48  64 S5        30.18R
SAGINAW HB     CLEAR     59  48  67 S7        30.11S
$$
MIZ043>046-050>051-056>058-064>065-071>073-077>080-220700-
SOUTHWEST LOWER MICHIGAN

CITY           SKY/WX    TMP DP  RH WIND       PRES   REMARKS
BATTLE CREEK   CLEAR     62  46  55 S13       30.12S
6HR MIN TEMP:  62; 6HR MAX TEMP:  68;

BENTON HARBOR  PTCLDY    65  49  56 SE9       30.06S
6HR MIN TEMP:  65; 6HR MAX TEMP:  70;

BIG RAPIDS     CLOUDY    60  44  54 S5        30.06S
6HR MIN TEMP:  60; 6HR MAX TEMP:  65;

COLDWATER      CLEAR     61  44  53 S5        30.13S
6HR MIN TEMP:  61; 6HR MAX TEMP:  67;

FREMONT        CLOUDY    64  52  64 S5        30.05R
HOLLAND        PTCLDY    66  51  58 S13       30.06S
6HR MIN TEMP:  65; 6HR MAX TEMP:  68;

GRAND RAPIDS   PTCLDY    65  50  58 S12       30.07S
6HR MIN TEMP:  64; 6HR MAX TEMP:  67;

IONIA          FAIR      60  45  57 S8        30.09S
6HR MIN TEMP:  60; 6HR MAX TEMP:  67;

KALAMAZOO      CLEAR     63  46  54 S9        30.11R
6HR MIN TEMP:  62; 6HR MAX TEMP:  69;

LUDINGTON      CLOUDY    68  53  59 S17       30.00S
6HR MIN TEMP:  65; 6HR MAX TEMP:  68;

MARSHALL       CLEAR     61  45  55 S7        30.12S
6HR MIN TEMP:  61; 6HR MAX TEMP:  67;

MOUNT PLEASANT CLOUDY    62  45  54 S5        30.09R
6HR MIN TEMP:  62; 6HR MAX TEMP:  69;

MUSKEGON       CLOUDY    69  52  54 S18G28    30.04R
6HR MIN TEMP:  67; 6HR MAX TEMP:  70;

SOUTH HAVEN    CLOUDY    65  50  57 S9        30.06S
$$
MIZ016>042-220700-
NORTHERN LOWER MICHIGAN

CITY           SKY/WX    TMP DP  RH WIND       PRES   REMARKS
ALPENA         MOCLDY    60  53  77 S7        30.07S
6HR MIN TEMP:  57; 6HR MAX TEMP:  67;

BEAVER ISLAND  CLEAR     65  51  60 S10G17    29.98R
6HR MIN TEMP:  65; 6HR MAX TEMP:  68;

BELLAIRE       PTCLDY    64  47  54 S5        30.02R
6HR MIN TEMP:  57; 6HR MAX TEMP:  68;

CADILLAC       PTCLDY    65  46  50 S8        30.05S
CHARLEVOIX     CLEAR     65  48  54 S9        30.02S
FRANKFORT      CLOUDY    67  53  59 S13       29.99S
GAYLORD        PTCLDY    62  45  53 S10       30.05S
6HR MIN TEMP:  60; 6HR MAX TEMP:  64;

GRAYLING       PTCLDY    60  44  54 S6        30.08R
6HR MIN TEMP:  60; 6HR MAX TEMP:  65;

HARBOR SPRINGS PTCLDY    65  47  52 SW5       30.01S
HOUGHTON LAKE  MOCLDY    61  46  57 S9        30.08S
6HR MIN TEMP:  59; 6HR MAX TEMP:  65;

MANISTEE       PTCLDY    65  53  65 SE7       30.00R
OSCODA         PTCLDY    61  53  73 S10       30.09F
6HR MIN TEMP:  61; 6HR MAX TEMP:  68;

ROGERS CITY    CLOUDY    64  47  54 S8        30.05S
TRAVERSE CITY  PTCLDY    68  50  52 VRB5      29.99S
6HR MIN TEMP:  67; 6HR MAX TEMP:  69;

$$
MIZ007>008-015-220700-
EASTERN UPPER MICHIGAN

CITY           SKY/WX    TMP DP  RH WIND       PRES   REMARKS
MACKINAC ISLAN CLEAR     65  44  46 S9        30.00S
6HR MIN TEMP:  57; 6HR MAX TEMP:  67;

NEWBERRY       PTCLDY    59  52  78 S7        29.96S
6HR MIN TEMP:  55; 6HR MAX TEMP:  61;

S. S. MARIE    CLOUDY    60  51  72 E6        30.02R
6HR MIN TEMP:  58; 6HR MAX TEMP:  60;

MUNISING         N/A     64  57  78 S14G24    29.87S
6HR MIN TEMP:  62; 6HR MAX TEMP:  65;

$$
MIZ004>006-011>014-085-220700-
CENTRAL UPPER MICHIGAN

CITY           SKY/WX    TMP DP  RH WIND       PRES   REMARKS
MANISTIQUE     PTCLDY    60  55  81 S7        29.95R
6HR MIN TEMP:  56; 6HR MAX TEMP:  62;

ESCANABA       PTCLDY    60  57  89 S7        29.92F
6HR MIN TEMP:  59; 6HR MAX TEMP:  62;

MENOMINEE      CLEAR     65  57  75 S10       29.90F
6HR MIN TEMP:  62; 6HR MAX TEMP:  66;

SAWYER-GWINN   CLOUDY    63  56  79 S17G23    29.89R
6HR MIN TEMP:  58; 6HR MAX TEMP:  63;

$$
MIZ001>003-009>011-084-220700-
WESTERN UPPER MICHIGAN

CITY           SKY/WX    TMP DP  RH WIND       PRES   REMARKS
HOUGHTON       CLEAR     63  54  72 SE6       29.78S
6HR MIN TEMP:  62; 6HR MAX TEMP:  68;

COPPER HARBOR    N/A     62  54  74 SW12G24   29.77R
6HR MIN TEMP:  62; 6HR MAX TEMP:  63;

IRONWOOD       LGT RAIN  63  58  83 S18G25    29.74R
6HR MIN TEMP:  63; 6HR MAX TEMP:  68; 6HR PCP:  0.01;

$$

ABBREVIATIONS USED IN REMARKS
   TC - TEMPERATURE IN CELSIUS
  WCI - WIND CHILL INDEX
   HX - HEAT INDEX
  VSB - VISIBILITY




USA.gov is the U.S. government's official web portal to all federal, state and local government web resources and services.